Tracking 19644 objects as of 25-Apr-2019
HD Live streaming from Space Station
objects crossing your sky now

THORAD AGENA D DEB

Track THORAD AGENA D DEB now!
10-day predictions


NORAD ID: 4854
Int'l Code: 1970-025EJ
Perigee: 1,045.6 km
Apogee: 1,070.7 km
Inclination: 99.6 °
Period: 106.2 minutes
Semi major axis: 7429 km
RCS: 0.0366 m2 (small)
Launch date: April 8, 1970
Source: United States (US)
Launch site: AIR FORCE WESTERN TEST RANGE (AFWTR)

Note: This is SATELLITE DEBRIS
aabbcc
Your satellite tracking list
Your tracking list is empty




NASA's NSSDC Master Catalog

Two Line Element Set (TLE):
1  4854U 70025EJ  19115.22377648  .00000005  00000-0  70529-4 0  9993
2  4854  99.6291  10.6721 0016874 292.3824 220.3116 13.55796316419063
Source of the keplerian elements: AFSPC